| time (UTC) | temp C | wind direction | speed KPH | gust KPH | rain 1hr cm | rain 24hr cm | rain mn cm | humidity % | barometer mb |
| 20260507053112 | 13 | 117 | 3.2 | 17.7 | 0.00 | 0.00 | 0.00 | 68 | 1009.4 |
| 20260507051612 | 12 | 165 | 4.8 | 20.9 | 0.00 | 0.00 | 0.00 | 69 | 1009.3 |
| 20260507050112 | 12 | 132 | 4.8 | 17.7 | 0.00 | 0.00 | 0.00 | 69 | 1009.2 |
| 20260507044611 | 12 | 221 | 4.8 | 16.1 | 0.00 | 0.00 | 0.00 | 69 | 1008.9 |
| 20260507043111 | 12 | 236 | 4.8 | 17.7 | 0.00 | 0.00 | 0.00 | 70 | 1008.9 |
| 20260507041611 | 12 | 14 | 6.4 | 22.5 | 0.00 | 0.00 | 0.00 | 69 | 1008.7 |
| 20260507040111 | 12 | 329 | 6.4 | 14.5 | 0.00 | 0.00 | 0.00 | 70 | 1008.5 |
| 20260507034611 | 12 | 10 | 4.8 | 19.3 | 0.00 | 0.00 | 0.00 | 70 | 1008.5 |
| 20260507033111 | 12 | 148 | 4.8 | 12.9 | 0.00 | 0.00 | 0.00 | 69 | 1008.5 |
| 20260507031611 | 12 | 84 | 6.4 | 12.9 | 0.00 | 0.00 | 0.00 | 70 | 1008.4 |
| 20260507030110 | 12 | 355 | 4.8 | 24.1 | 0.00 | 0.00 | 0.00 | 69 | 1008.4 |
| 20260507024610 | 13 | 24 | 3.2 | 11.3 | 0.00 | 0.00 | 0.00 | 69 | 1008.1 |
| 20260507023110 | 13 | 307 | 4.8 | 14.5 | 0.00 | 0.00 | 0.00 | 69 | 1008.0 |
| 20260507021610 | 13 | 92 | 4.8 | 12.9 | 0.00 | 0.00 | 0.00 | 71 | 1008.0 |
| 20260507020110 | 13 | 179 | 3.2 | 11.3 | 0.00 | 0.00 | 0.00 | 72 | 1007.9 |
| 20260507014610 | 13 | 355 | 4.8 | 14.5 | 0.00 | 0.00 | 0.00 | 73 | 1007.9 |
| 20260507013110 | 13 | 193 | 3.2 | 14.5 | 0.00 | 0.00 | 0.00 | 73 | 1007.8 |
| 20260507011609 | 13 | 269 | 4.8 | 19.3 | 0.00 | 0.00 | 0.00 | 72 | 1007.7 |
| 20260507010109 | 13 | 355 | 4.8 | 12.9 | 0.00 | 0.00 | 0.00 | 72 | 1007.6 |
| 20260507004609 | 13 | 331 | 4.8 | 12.9 | 0.00 | 0.00 | 0.00 | 71 | 1007.4 |
| 20260507003114 | 14 | 69 | 3.2 | 14.5 | 0.00 | 0.00 | 0.00 | 71 | 1007.3 |
| 20260507001614 | 14 | 39 | 4.8 | 17.7 | 0.00 | 0.00 | 0.00 | 71 | 1007.3 |
| 20260507000114 | 14 | 342 | 3.2 | 14.5 | 0.00 | 0.00 | 0.00 | 71 | 1007.1 |
| 20260506234613 | 15 | 114 | 4.8 | 14.5 | 0.00 | 0.00 | 0.00 | 72 | 1006.9 |
| 20260506233114 | 15 | 30 | 4.8 | 20.9 | 0.00 | 0.00 | 0.00 | 74 | 1006.9 |
| 20260506231613 | 15 | 67 | 6.4 | 19.3 | 0.00 | 0.00 | 0.00 | 74 | 1006.7 |
| 20260506230113 | 15 | 259 | 4.8 | 17.7 | 0.00 | 0.00 | 0.00 | 73 | 1006.5 |
| 20260506224613 | 15 | 360 | 4.8 | 17.7 | 0.00 | 0.00 | 0.00 | 70 | 1006.3 |
| 20260506223113 | 15 | 228 | 4.8 | 12.9 | 0.00 | 0.00 | 0.00 | 67 | 1006.2 |
| 20260506221614 | 15 | 5 | 4.8 | 17.7 | 0.00 | 0.00 | 0.00 | 67 | 1005.6 |
| 20260506220113 | 15 | 94 | 3.2 | 11.3 | 0.00 | 0.00 | 0.00 | 67 | 1005.3 |
| 20260506214613 | 15 | 153 | 0.0 | 1.6 | 0.00 | 0.00 | 0.00 | 69 | 1005.0 |
| 20260506213113 | 16 | 200 | 0.0 | 3.2 | 0.00 | 0.00 | 0.00 | 67 | 1004.7 |
| 20260506211612 | 16 | 140 | 1.6 | 8.0 | 0.00 | 0.00 | 0.00 | 65 | 1004.5 |
| 20260506210112 | 16 | 119 | 1.6 | 14.5 | 0.00 | 0.00 | 0.00 | 64 | 1004.3 |
| 20260506204612 | 17 | 124 | 4.8 | 17.7 | 0.00 | 0.00 | 0.00 | 64 | 1004.1 |
| 20260506203112 | 17 | 181 | 6.4 | 16.1 | 0.00 | 0.00 | 0.00 | 62 | 1004.0 |
| 20260506201612 | 17 | 118 | 8.0 | 17.7 | 0.00 | 0.00 | 0.00 | 62 | 1003.8 |
| 20260506200112 | 17 | 187 | 6.4 | 17.7 | 0.00 | 0.00 | 0.00 | 61 | 1003.7 |
| 20260506194612 | 17 | 81 | 6.4 | 20.9 | 0.00 | 0.00 | 0.00 | 61 | 1003.6 |
| 20260506193113 | 18 | 115 | 8.0 | 25.7 | 0.00 | 0.00 | 0.00 | 60 | 1003.3 |
| 20260506191611 | 18 | 94 | 8.0 | 22.5 | 0.00 | 0.00 | 0.00 | 59 | 1003.3 |
| 20260506190111 | 18 | 123 | 6.4 | 20.9 | 0.00 | 0.00 | 0.00 | 58 | 1003.1 |
| 20260506184611 | 18 | 123 | 8.0 | 24.1 | 0.00 | 0.00 | 0.00 | 57 | 1003.0 |
| 20260506183111 | 18 | 219 | 9.7 | 27.4 | 0.00 | 0.00 | 0.00 | 56 | 1002.7 |
| 20260506181611 | 19 | 85 | 8.0 | 27.4 | 0.00 | 0.00 | 0.00 | 55 | 1002.6 |
| 20260506180112 | 20 | 102 | 8.0 | 25.7 | 0.00 | 0.00 | 0.00 | 54 | 1002.5 |
| 20260506174610 | 20 | 130 | 8.0 | 35.4 | 0.00 | 0.00 | 0.00 | 53 | 1002.5 |
| 20260506173110 | 20 | 96 | 9.7 | 25.7 | 0.00 | 0.00 | 0.00 | 53 | 1002.4 |
| 20260506171615 | 21 | 74 | 9.7 | 22.5 | 0.00 | 0.00 | 0.00 | 51 | 1002.4 |
| 20260506170114 | 21 | 32 | 9.7 | 24.1 | 0.00 | 0.00 | 0.00 | 50 | 1002.4 |
| 20260506164616 | 21 | 122 | 8.0 | 22.5 | 0.00 | 0.00 | 0.00 | 50 | 1002.4 |
| 20260506163114 | 21 | 103 | 11.3 | 29.0 | 0.00 | 0.00 | 0.00 | 49 | 1002.7 |
| 20260506161615 | 21 | 174 | 12.9 | 27.4 | 0.00 | 0.00 | 0.00 | 49 | 1002.7 |
| 20260506160114 | 22 | 98 | 11.3 | 29.0 | 0.00 | 0.00 | 0.00 | 49 | 1002.9 |
| 20260506154614 | 22 | 161 | 9.7 | 27.4 | 0.00 | 0.00 | 0.00 | 47 | 1002.8 |
| 20260506153113 | 23 | 105 | 9.7 | 27.4 | 0.00 | 0.00 | 0.00 | 46 | 1002.8 |
| 20260506151613 | 23 | 101 | 12.9 | 33.8 | 0.00 | 0.00 | 0.00 | 44 | 1002.9 |
| 20260506150113 | 23 | 181 | 9.7 | 25.7 | 0.00 | 0.00 | 0.00 | 43 | 1002.8 |
| 20260506144613 | 23 | 165 | 12.9 | 32.2 | 0.00 | 0.00 | 0.00 | 42 | 1002.8 |
| 20260506143113 | 24 | 107 | 11.3 | 25.7 | 0.00 | 0.00 | 0.00 | 41 | 1002.9 |
| 20260506141614 | 25 | 149 | 12.9 | 29.0 | 0.00 | 0.00 | 0.00 | 41 | 1002.9 |
| 20260506140113 | 25 | 181 | 11.3 | 24.1 | 0.00 | 0.00 | 0.00 | 41 | 1003.0 |
| 20260506134613 | 25 | 107 | 12.9 | 30.6 | 0.00 | 0.00 | 0.00 | 40 | 1003.5 |
| 20260506133112 | 25 | 141 | 12.9 | 37.0 | 0.00 | 0.00 | 0.00 | 40 | 1003.5 |
| 20260506131614 | 25 | 135 | 11.3 | 29.0 | 0.00 | 0.00 | 0.00 | 39 | 1003.8 |
| 20260506130112 | 23 | 119 | 11.3 | 27.4 | 0.00 | 0.00 | 0.00 | 44 | 1003.9 |
| 20260506124612 | 22 | 148 | 12.9 | 29.0 | 0.00 | 0.00 | 0.00 | 43 | 1004.0 |
| 20260506123112 | 22 | 96 | 8.0 | 24.1 | 0.00 | 0.00 | 0.00 | 45 | 1004.4 |
| 20260506121612 | 22 | 103 | 11.3 | 33.8 | 0.00 | 0.00 | 0.00 | 46 | 1004.6 |
| 20260506120111 | 22 | 155 | 11.3 | 29.0 | 0.00 | 0.00 | 0.00 | 45 | 1004.7 |
| 20260506114611 | 22 | 116 | 9.7 | 27.4 | 0.00 | 0.00 | 0.00 | 46 | 1004.8 |
| 20260506113111 | 24 | 140 | 11.3 | 27.4 | 0.00 | 0.00 | 0.00 | 45 | 1005.1 |
| 20260506111611 | 23 | 82 | 12.9 | 35.4 | 0.00 | 0.00 | 0.00 | 49 | 1005.2 |
| 20260506110111 | 23 | 148 | 11.3 | 33.8 | 0.00 | 0.00 | 0.00 | 45 | 1005.4 |
| 20260506104611 | 23 | 146 | 12.9 | 35.4 | 0.00 | 0.00 | 0.00 | 44 | 1005.9 |
| 20260506103110 | 23 | 94 | 12.9 | 27.4 | 0.00 | 0.00 | 0.00 | 47 | 1005.9 |
| 20260506101611 | 22 | 121 | 11.3 | 24.1 | 0.00 | 0.00 | 0.00 | 47 | 1006.0 |
| 20260506100110 | 23 | 94 | 9.7 | 25.7 | 0.00 | 0.00 | 0.00 | 47 | 1006.1 |
| 20260506094610 | 23 | 120 | 9.7 | 27.4 | 0.00 | 0.00 | 0.00 | 45 | 1006.2 |
| 20260506093110 | 23 | 101 | 9.7 | 24.1 | 0.00 | 0.00 | 0.00 | 46 | 1006.4 |
| 20260506091610 | 21 | 88 | 11.3 | 22.5 | 0.00 | 0.00 | 0.00 | 52 | 1006.6 |
| 20260506090110 | 22 | 89 | 9.7 | 20.9 | 0.00 | 0.00 | 0.00 | 50 | 1006.5 |
| 20260506084616 | 23 | 126 | 8.0 | 20.9 | 0.00 | 0.00 | 0.00 | 48 | 1006.5 |
| 20260506083114 | 22 | 57 | 6.4 | 16.1 | 0.00 | 0.00 | 0.00 | 46 | 1006.6 |
| 20260506081616 | 22 | 107 | 6.4 | 14.5 | 0.00 | 0.00 | 0.00 | 47 | 1006.8 |
| 20260506080115 | 22 | 92 | 4.8 | 12.9 | 0.00 | 0.00 | 0.00 | 50 | 1006.8 |
| 20260506073114 | 21 | 110 | 3.2 | 12.9 | 0.00 | 0.00 | 0.00 | 52 | 1006.9 |
| 20260506071615 | 21 | 71 | 3.2 | 9.7 | 0.00 | 0.00 | 0.00 | 52 | 1007.0 |
| 20260506070114 | 20 | 184 | 3.2 | 8.0 | 0.00 | 0.00 | 0.00 | 56 | 1007.1 |
| 20260506061613 | 17 | 129 | 1.6 | 9.7 | 0.00 | 0.00 | 0.00 | 65 | 1007.2 |
| 20260506060113 | 16 | 78 | 1.6 | 4.8 | 0.00 | 0.00 | 0.00 | 67 | 1007.2 |